DELTA 1 DEB, 42090

Orbit data source: Space-Track

DELTA 1 DEB, 42090 is space debris in SSO originally from a launch on Sun, 15 Dec 1968 UTC launched from the Air Force Western Test Range (AFWTR). Debris objects in space refer to the collection of defunct objects orbiting the Earth. Examples of debris include non-operational satellites, rocket bodies, and fragments generated from explosions, collisions, or faulty payload assembly.

Loading next visibility...
Identifier
42090, 1968-114S
Orbit
SSO
Country
Flag of USUS
Related business
Manufacturer
Aerojet
Mission
Spacecraft
Bus & Motor
Unknown
Mass
Unknown
Launch date (UTC)
1968-12-15 (57 years ago)
Launch vehicle
Unknown
Launch site
Air Force Western Test Range (AFWTR)
Object type
Payload
Rocket body
Debris
Shape & HBR
Unknown shape, 0.1 m
Radar Cross Section
Small (<0.1 m²)

Expand to show TLE details & history
Last TLE update: 5 days ago

TLE from 5 days ago
0 DELTA 1 DEB
1 42090U 68114S   26032.68882417  .00000164  00000-0  14666-2 0  9998
2 42090 101.4040 179.8340 0112060 112.6972 263.4104 12.41838158158877
Epoch: 2026-02-01T16:31Z
TLE epoch observation values (Epoch: 2026-02-01T16:31:54.408Z)
Latitude
14.51114°
Longitude
156.98445°
Altitude
1,511.797 km
Speed
7.105 km/s
True Right ascension
11h 47m 25s
True Declination
14° 26' 09"
Sunlit
Object was in full shadow at epoch
Visualization orbit readout
Latitude
Unknown
Longitude
Unknown
Altitude
Unknown
Speed
Unknown
Apparent Right ascension
Unknown
Apparent Declination
Unknown
Sunlit
N/A
Visualization observer readout
Local Sidereal Time
15:02:46
Azimuth
Unknown
Elevation
Unknown
Doppler factor
Unknown
Orbital elements
Apogee altitude
1,584.599 km
Perigee altitude
1,408.116 km
Semi-major axis
7,874.495 km
Eccentricity
0.01121
Inclination
101.404°
RAAN
179.834°
Arg. of periapsis
112.6972°
True anomaly
262.13692°
Mean anomaly
263.4104°
Eccentric anomaly
262.77344°
Mean motion
3.10605 °/min
Orbital period
115.9 mins
BSTAR
0.0014666
Loading maneuver chart data...
Computing Atmospheric mass density...
Loading historical data...
Loading historical data...
Loading historical data...
Loading historical data...
Loading historical data...
Loading historical data...
Loading historical data...

Documentation

Showing up to 5 results
|